x

Big Bay, Mi (bigm4) Weather Station

5:40pm - Mon 30th Mar 2015 All times are CDT. -5 hours from GMT.

  • Wind
    2mph, 7mph gusts
  • Air Temp 32°f
  • Sea Pressure 1011.9mb
  • Big Bay, Mi
  • Big Bay, Mi

More Historic Weather Station data

Upgrade to MSW Pro to gain access to the past 30 days of data for over 8000 Wavebouys and Weather Stations around the globe.

Join Pro

Comparision Forecast

View Surf forecast
   
Mon 03/30 5:40pm 2 7 mph 1011.9mb 32f
5:30pm 3 6 mph 1011.9mb 32f
5:20pm 1 7 mph 1011.9mb 32f
5:10pm  -  3 mph 1011.9mb 33f
5:00pm 1 6 mph 1011.9mb 34f
4:40pm  -  2 mph 1011.9mb 34f
4:30pm  -  3 mph 1011.9mb 34f
4:20pm  -  5 mph 1012.2mb 35f
4:10pm  -  2 mph 1012.2mb 35f
4:00pm  -  2 mph 1012.2mb 35f
3:40pm 1 6 mph 1012.2mb 36f
3:30pm  -  7 mph 1012.2mb 37f
3:20pm 3 7 mph 1012.2mb 36f
3:10pm 5 7 mph 1012.2mb 37f
3:00pm 5 7 mph 1012.2mb 36f
2:40pm 6 7 mph 1012.2mb 37f
2:30pm 6 8 mph 1012.2mb 36f
2:20pm 7 8 mph 1012.2mb 36f
2:10pm 5 7 mph 1012.2mb 37f
2:00pm 5 8 mph 1012.5mb 36f
1:40pm 6 9 mph 1012.5mb 36f
1:30pm 7 8 mph 1012.5mb 36f
1:20pm 6 8 mph 1012.5mb 36f
1:10pm 7 10 mph 1012.5mb 35f
1:00pm 7 10 mph 1012.5mb 35f
12:40pm 8 11 mph 1012.5mb 35f
12:30pm 10 11 mph 1012.2mb 35f
12:20pm 9 11 mph 1012.2mb 35f
12:10pm 10 14 mph 1012.2mb 34f
12:00pm 11 13 mph 1012.2mb 34f
11:40am 11 14 mph 1012.2mb 34f
11:30am 13 16 mph 1011.9mb 34f
11:20am 11 14 mph 1011.5mb 35f
11:10am 10 21 mph 1011.5mb 36f
11:00am 14 21 mph 1011.5mb 36f
10:40am 13 18 mph 1011.2mb 36f
10:30am 13 23 mph 1011.2mb 36f
10:20am 11 22 mph 1011.2mb 37f
10:10am 11 20 mph 1011.2mb 37f
10:00am 10 23 mph 1010.8mb 36f
9:40am 11 18 mph 1010.8mb 36f
9:30am 8 21 mph 1010.8mb 36f
9:20am 13 18 mph 1010.5mb 36f
9:10am 11 18 mph 1010.2mb 36f
9:00am 10 15 mph 1010.5mb 36f
8:40am 9 20 mph 1010.2mb 35f
8:30am 9 18 mph 1009.8mb 35f
8:20am 10 16 mph 1009.8mb 35f
8:10am 9 14 mph 1009.8mb 35f
8:00am 7 14 mph 1009.5mb 34f
7:40am 8 18 mph 1009.1mb 34f
7:30am 5 9 mph 1009.1mb 33f
7:20am 5 8 mph 1008.8mb 33f
7:10am 3 9 mph 1008.8mb 33f
7:00am 1 9 mph 1008.5mb 33f
6:40am 7 13 mph 1008.1mb 33f
6:30am 5 11 mph 1008.1mb 33f
6:20am 5 10 mph 1007.8mb 33f
6:10am 7 11 mph 1007.5mb 33f
6:00am 5 9 mph 1007.5mb 33f
5:40am 3 14 mph 1007.1mb 33f
5:30am 6 10 mph 1007.1mb 33f
5:20am 6 15 mph 1006.8mb 33f
5:10am 6 10 mph 1006.8mb 33f
5:00am 8 11 mph 1006.4mb 33f
4:40am 6 13 mph 1006.1mb 33f
4:30am 5 9 mph 1005.8mb 33f
4:20am 3 10 mph 1005.4mb 33f
4:10am 3 7 mph 1005.4mb 33f
4:00am 2 7 mph 1005.4mb 34f
3:40am 5 9 mph 1005.4mb 35f
3:30am 3 21 mph 1005.4mb 35f
3:20am 8 13 mph 1005.4mb 37f
3:10am 5 14 mph 1005.1mb 38f
3:00am 6 9 mph 1005.1mb 38f
2:40am 3 11 mph 1005.1mb 38f
2:30am 5 13 mph 1005.1mb 38f
2:20am 6 14 mph 1005.4mb 38f
2:10am 6 15 mph 1005.4mb 38f
2:00am 7 17 mph 1005.4mb 38f
1:40am 5 13 mph 1005.1mb 38f
1:30am 5 13 mph 1005.1mb 37f
1:20am 7 15 mph 1005.1mb 37f
1:10am 7 16 mph 1004.7mb 37f
1:00am 8 18 mph 1004.7mb 37f
12:40am 6 22 mph 1004.4mb 37f
12:30am 6 17 mph 1004.4mb 37f
12:20am 7 17 mph 1004.4mb 37f
12:10am 5 14 mph 1004.4mb 37f
12:00am 7 17 mph 1004.4mb 37f
Sun 03/29 11:40pm 6 14 mph 1004.4mb 38f
11:30pm 8 17 mph 1004.1mb 38f
11:20pm 7 15 mph 1004.1mb 37f
11:10pm 7 18 mph 1004.1mb 37f
11:00pm 13 25 mph 1004.1mb 37f
10:40pm 6 15 mph 1004.1mb 37f
10:30pm 6 16 mph 1003.7mb 37f
10:22pm 7 21 mph 1003.7mb 37f
10:20pm 9 21 mph 1003.7mb 37f
10:10pm 7 16 mph 1003.4mb 37f
10:00pm 10 18 mph 1003.4mb 37f
9:40pm 10 21 mph 1003mb 37f
9:30pm 7 20 mph 1003mb 37f
9:21pm 10 24 mph 1002.7mb 36f
9:20pm 10 18 mph 1002.7mb 36f
9:10pm 7 16 mph 1002.7mb 37f
9:00pm 11 24 mph 1002.4mb 37f
8:40pm 8 21 mph 1001.7mb 37f
8:30pm 9 21 mph 1001.4mb 37f
8:21pm 7 20 mph 1001.4mb 37f
8:20pm 7 18 mph 1001.4mb 37f
8:10pm 9 17 mph 1001mb 37f
8:00pm 7 17 mph 1000.7mb 37f
7:40pm 7 17 mph 1000mb 36f
7:30pm 7 20 mph 999.7mb 36f
7:20pm 8 17 mph 999.3mb 36f
7:10pm 9 24 mph 999mb 35f
7:00pm 9 22 mph 998.6mb 35f
6:40pm 9 23 mph 998.3mb 35f
6:30pm 13 24 mph 998mb 35f
6:20pm 9 20 mph 997.6mb 35f
6:10pm 7 18 mph 997.6mb 35f
6:00pm 7 20 mph 997.3mb 35f
5:50pm 5 15 mph 997mb 35f
5:40pm 5 15 mph 997mb 35f
5:30pm 9 17 mph 996.6mb 35f
5:20pm 6 22 mph 996.6mb 35f
5:10pm 9 18 mph 996.3mb 35f
5:00pm 7 15 mph 995.9mb 35f
4:50pm 6 15 mph 995.6mb 35f
4:40pm 5 11 mph 995.6mb 35f
4:30pm 6 14 mph 995.3mb 35f
4:20pm 6 15 mph 995.3mb 35f
4:10pm 7 14 mph 995.3mb 35f
4:00pm 9 16 mph 995.3mb 34f
3:50pm 5 10 mph 995.6mb 34f
3:40pm 8 16 mph 995.3mb 34f
3:30pm 5 15 mph 995.3mb 34f
3:20pm 7 22 mph 995.3mb 34f
3:10pm 10 18 mph 995.3mb 35f
3:00pm 10 17 mph 995.3mb 35f
2:50pm 10 20 mph 995.3mb 34f
2:40pm 10 18 mph 995.6mb 33f
2:30pm 10 22 mph 995.6mb 34f
2:20pm 9 20 mph 995.9mb 34f
2:10pm 10 18 mph 996.3mb 34f
2:00pm 7 16 mph 995.9mb 34f
1:50pm 9 20 mph 996.3mb 34f
1:40pm 10 18 mph 996.6mb 34f
1:30pm 9 20 mph 996.6mb 33f
1:20pm 11 24 mph 997mb 34f
1:10pm 10 24 mph 997mb 34f
1:00pm 9 22 mph 997.3mb 33f
12:50pm 10 22 mph 997.6mb 33f
12:40pm 8 17 mph 997.6mb 33f
12:30pm 10 20 mph 998mb 33f
12:20pm 10 17 mph 998mb 33f
12:10pm 9 22 mph 998.3mb 33f
12:00pm 7 20 mph 998.6mb 32f
11:50am 8 18 mph 999mb 32f
11:40am 9 16 mph 999.3mb 32f
11:30am 13 21 mph 999.7mb 32f
11:20am 14 23 mph 999.7mb 32f
11:10am 9 22 mph 999.7mb 32f
11:00am 11 20 mph 1000mb 32f
10:50am 10 23 mph 1000.3mb 32f
10:42am 8 25 mph 1000.3mb 33f
10:40am 5 22 mph 1000.3mb 33f
10:30am 6 20 mph 1000.3mb 33f
10:20am 6 20 mph 1000.3mb 33f
10:10am 3 13 mph 1000.3mb 34f
10:00am 3 25 mph 1000.3mb 37f
9:50am 8 13 mph 1000.3mb 36f
9:42am 2 24 mph 1000.7mb 36f
9:40am 3 20 mph 1000.7mb 36f
9:30am 9 20 mph 1000.7mb 36f
9:20am 6 15 mph 1001mb 36f
9:10am 11 24 mph 1000.7mb 35f
9:00am 7 21 mph 1001.4mb 35f
8:50am 8 20 mph 1001.7mb 35f
8:41am 7 18 mph 1001.7mb 34f
8:40am 7 15 mph 1001.7mb 34f
8:30am 9 18 mph 1002.4mb 34f
8:20am 8 15 mph 1003mb 34f
8:10am 7 13 mph 1003.4mb 34f
8:00am 2 18 mph 1003.4mb 34f
7:50am 2 11 mph 1004.1mb 34f
7:41am 8 22 mph 1004.4mb 34f
7:40am 8 14 mph 1004.1mb 34f
7:30am 9 14 mph 1004.4mb 34f
7:20am 9 22 mph 1004.7mb 34f
7:10am 8 14 mph 1005.1mb 33f
7:00am 5 16 mph 1005.8mb 33f
6:50am 11 20 mph 1006.1mb 33f
6:40am 9 20 mph 1006.8mb 33f
6:30am 8 23 mph 1007.1mb 33f
6:20am 8 18 mph 1007.1mb 34f
6:10am 8 21 mph 1007.5mb 34f
6:00am 6 20 mph 1007.5mb 34f
5:50am 8 21 mph 1008.1mb 34f
5:40am 9 24 mph 1008.1mb 34f
5:30am 9 22 mph 1008.1mb 34f
5:20am 10 22 mph 1008.5mb 34f
5:10am 13 23 mph 1008.8mb 34f
5:00am 13 24 mph 1008.8mb 34f
4:50am 10 26 mph 1009.5mb 34f
4:40am 6 22 mph 1009.1mb 34f
4:30am 8 15 mph 1009.8mb 34f
4:20am 9 26 mph 1009.8mb 34f
4:10am 11 21 mph 1009.8mb 34f
4:00am 5 22 mph 1010.2mb 34f
3:50am 11 28 mph 1010.2mb 34f
3:40am 13 21 mph 1010.2mb 34f
3:30am 5 16 mph 1010.5mb 34f
3:20am 6 23 mph 1010.5mb 34f
3:10am 7 15 mph 1010.5mb 34f
3:00am 3 20 mph 1011.2mb 33f
2:50am 6 15 mph 1011.2mb 34f
2:40am 8 21 mph 1011.2mb 34f
2:30am 8 16 mph 1011.2mb 33f
2:20am 6 14 mph 1011.5mb 34f
2:10am 8 18 mph 1011.9mb 34f
2:00am 6 16 mph 1011.9mb 34f
1:50am 8 23 mph 1012.2mb 34f
1:40am 9 21 mph 1011.9mb 35f
1:30am 10 26 mph 1012.2mb 35f
1:20am 8 21 mph 1012.5mb 35f
1:10am 8 21 mph 1012.5mb 35f
1:00am 9 21 mph 1012.9mb 35f
12:50am 7 21 mph 1012.9mb 35f
12:40am 9 18 mph 1013.2mb 35f
12:30am 8 20 mph 1013.2mb 35f
12:20am 9 14 mph 1013.5mb 35f
12:10am 6 16 mph 1013.9mb 35f
12:00am 8 16 mph 1013.9mb 35f
Sat 03/28 11:50pm 6 15 mph 1014.2mb 35f
11:40pm 5 11 mph 1014.6mb 34f
11:30pm 5 11 mph 1014.6mb 33f
11:20pm 5 9 mph 1014.9mb 32f
11:10pm 5 10 mph 1014.9mb 32f
11:00pm 3 7 mph 1015.2mb 28f
10:50pm 3 7 mph 1015.2mb 24f
10:40pm 3 7 mph 1015.6mb 22f
10:30pm 3 7 mph 1015.9mb 23f
10:20pm 3 6 mph 1015.9mb 20f
10:10pm 2 5 mph 1016.3mb 19f
10:00pm  -  2 mph 1016.3mb 19f
9:50pm  -  mph 1016.3mb 19f
9:40pm  -  mph 1016.6mb 20f
9:30pm  -  2 mph 1016.6mb 20f
9:20pm  -  5 mph 1016.6mb 21f
9:10pm 1 5 mph 1016.6mb 22f
9:00pm 2 5 mph 1016.6mb 22f
8:50pm 2 5 mph 1016.6mb 22f
8:40pm 1 3 mph 1016.9mb 22f
8:30pm 1 3 mph 1017.3mb 22f
8:20pm  -  2 mph 1017.3mb 23f
8:10pm  -  1 mph 1017.3mb 24f
8:00pm  -  2 mph 1017.6mb 24f
7:50pm 1 2 mph 1017.6mb 25f
7:40pm  -  2 mph 1017.6mb 26f
7:30pm  -  3 mph 1017.9mb 26f
7:20pm 2 5 mph 1017.9mb 27f
7:10pm 2 7 mph 1018.3mb 28f
7:00pm 2 7 mph 1018.3mb 28f
6:50pm 3 6 mph 1018.3mb 29f
6:40pm 5 7 mph 1018.3mb 29f
6:30pm 3 10 mph 1018.3mb 30f
6:20pm 5 8 mph 1018.6mb 31f
6:10pm 5 7 mph 1018.6mb 32f
6:00pm 5 8 mph 1019mb 32f
5:50pm 1 7 mph 1019mb 33f
5:40pm 2 8 mph 1019mb 32f
5:30pm 2 8 mph 1019mb 32f
5:20pm 2 7 mph 1019.3mb 32f
5:10pm  -  2 mph 1019.3mb 33f
5:00pm  -  7 mph 1019.3mb 33f
4:50pm  -  2 mph 1019.6mb 32f
4:40pm  -  2 mph 1019.6mb 32f
4:30pm  -  1 mph 1020mb 33f
4:20pm  -  1 mph 1020mb 32f
4:10pm 2 7 mph 1020.3mb 33f
4:00pm  -  1 mph 1020.3mb 33f
3:50pm  -  mph 1020.3mb 34f
3:40pm  -  1 mph 1020.7mb 34f
3:30pm  -  mph 1020.7mb 35f
3:20pm  -  2 mph 1021mb 35f
3:10pm  -  mph 1021mb 37f
3:00pm  -  25 mph 1021mb 36f
2:50pm  -  5 mph 1021.7mb 35f
2:40pm 1 7 mph 1022mb 33f
2:30pm 6 7 mph 1022mb 34f
2:20pm 1 6 mph 1022mb 33f
2:10pm 3 6 mph 1022mb 32f
2:00pm  -  7 mph 1022mb 34f
1:50pm 3 7 mph 1022mb 35f
1:40pm 2 6 mph 1022.4mb 34f
1:30pm 5 7 mph 1022.4mb 34f
1:20pm 5 6 mph 1022.4mb 34f
1:10pm 5 6 mph 1022.7mb 34f
1:00pm 1 7 mph 1022.7mb 33f
12:50pm 5 7 mph 1022.7mb 33f
12:40pm 3 7 mph 1022.7mb 31f
12:30pm 6 8 mph 1022.7mb 30f
12:20pm 7 8 mph 1023mb 30f
12:10pm 7 8 mph 1023.4mb 30f
12:00pm 7 8 mph 1023.4mb 29f
11:50am 8 9 mph 1023.4mb 29f
11:40am 8
mph
1023.7mb 31f
11:30am 7 8 mph 1023.7mb 33f
11:20am 6
mph
1023.7mb 32f
11:10am 3 5 mph 1024mb 30f
11:00am 2 5 mph 1024mb 28f
10:50am 5 6 mph 1024mb 25f
10:40am 5
mph
1024mb 26f
10:30am 3 5 mph 1024mb 29f
10:20am 3 5 mph 1024mb 26f
10:10am 1 2 mph 1024mb 31f
10:00am 2 3 mph 1024mb 27f
9:50am 2 3 mph 1024mb 25f
9:40am 2
mph
1024mb 26f
9:30am  -  2 mph 1024mb 23f
9:20am 2 3 mph 1024mb 22f
9:10am 3
mph
1024mb 20f
9:00am 2 3 mph 1024mb 20f
8:50am  -  mph 1024mb 17f
8:40am  -  2 mph 1023.7mb 15f
8:30am 2 3 mph 1023.4mb 11f
8:20am 2 3 mph 1023.4mb 8f
8:10am 2
mph
1023mb 5f
8:00am  -  2 mph 1023mb 2f
7:50am  -  2 mph 1022.7mb -
7:40am 2 5 mph 1022.7mb -2f
7:30am 3
mph
1022.4mb -3f
7:20am 3
mph
1022.7mb -6f
7:10am 2 3 mph 1022.7mb -7f
7:00am 3
mph
1022.7mb -7f
6:50am 3
mph
1022.7mb -7f
6:40am 2 3 mph 1022.7mb -7f
6:30am 2 3 mph 1022.4mb -7f
6:20am 3
mph
1022mb -7f
6:10am 3
mph
1022mb -6f
6:00am 3
mph
1022.4mb -7f
5:50am 3 5 mph 1022.4mb -5f
5:40am 3 5 mph 1022.4mb -5f
5:30am 3
mph
1022mb -7f
5:20am 3
mph
1022mb -7f
5:10am 3
mph
1021.7mb -6f
5:00am 3
mph
1021.7mb -6f
4:50am 2 3 mph 1021.7mb -7f
4:40am 2 3 mph 1021.7mb -7f
4:30am 2 3 mph 1021.3mb -7f
4:20am 3 5 mph 1021.3mb -7f
4:10am 3
mph
1021.7mb -7f
4:00am 2 3 mph 1021.7mb -7f
3:40am 3
mph
1021.7mb -6f
3:30am 3
mph
1021.7mb -6f
3:20am 2 3 mph 1021.7mb -6f
3:10am 2 3 mph 1021.7mb -5f
3:00am 3
mph
1021.7mb -5f
2:50am 3
mph
1021.7mb -5f
2:40am 2 3 mph 1021.7mb -5f
2:30am 3
mph
1021.7mb -5f
2:20am 2 3 mph 1021.7mb -4f
2:10am 2 3 mph 1021.7mb -4f
2:00am 3
mph
1021.7mb -4f
1:50am 2
mph
1021.7mb -4f
1:40am 2 3 mph 1021.7mb -4f
1:30am 3
mph
1021.7mb -4f
1:20am 2 3 mph 1021.7mb -4f
1:10am 3
mph
1021.7mb -3f
1:00am 2 3 mph 1021.7mb -3f
12:50am 2
mph
1021.7mb -3f
12:40am 2
mph
1021.7mb -3f
12:30am 2 3 mph 1021.7mb -2f
12:20am 2 3 mph 1021.7mb -3f
12:10am 2 3 mph 1021.7mb -1f
12:00am 2 3 mph 1021.7mb -1f
Fri 03/27 11:40pm 2 3 mph 1021.7mb -
11:30pm 3
mph
1021.7mb -1f
11:20pm 2
mph
1021.7mb -
11:10pm 2
mph
1021.7mb 1f
11:00pm 1 2 mph 1022mb 1f
10:50pm 1 2 mph 1022mb 1f
10:40pm 1 2 mph 1022mb 1f
10:30pm  -  1 mph 1022mb 2f
10:20pm 1 2 mph 1022mb 3f
10:10pm 2
mph
1022mb 3f
10:00pm 1 3 mph 1022mb 3f
9:50pm  -  mph 1022mb 4f
9:40pm  -  mph 1022mb 4f
9:30pm  -  2 mph 1022mb 5f
9:20pm  -  2 mph 1022mb 5f
9:10pm 1 2 mph 1022mb 6f
9:00pm 1 2 mph 1022.4mb 6f
8:50pm 1 2 mph 1022.4mb 7f
8:40pm  -  3 mph 1022mb 7f
8:30pm  -  2 mph 1022mb 7f
8:20pm 1 2 mph 1022mb 8f
8:10pm  -  2 mph 1022mb 8f
8:00pm  -  mph 1022mb 9f
7:50pm  -  mph 1022mb 9f
7:40pm  -  mph 1022.4mb 10f
7:30pm  -  2 mph 1022.4mb 11f
7:20pm  -  mph 1022.4mb 12f
7:10pm  -  mph 1022.4mb 13f
7:00pm  -  mph 1022.4mb 14f
6:50pm  -  mph 1022.7mb 16f
6:40pm  -  mph 1022.7mb 17f
6:30pm  -  1 mph 1022.7mb 20f
6:20pm  -  2 mph 1022.7mb 24f
6:10pm  -  2 mph 1022.4mb 26f
6:00pm  -  1 mph 1022.7mb 24f
5:50pm  -  2 mph 1022.7mb 25f
5:40pm  -  3 mph 1022.7mb 25f
5:30pm 2 3 mph 1022.7mb 24f
5:20pm 2 5 mph 1022.7mb 24f
5:10pm 3 6 mph 1022.7mb 25f
5:00pm 5 6 mph 1022.7mb 26f
4:50pm 3
mph
1022.7mb 28f
4:40pm 3 6 mph 1023mb 26f
4:30pm 1 3 mph 1023mb 27f
4:20pm 3 5 mph 1023mb 26f
4:10pm 5 6 mph 1022.7mb 22f
4:00pm 6 8 mph 1022.7mb 22f
3:50pm 7 9 mph 1022.7mb 22f
3:40pm 7 9 mph 1022.7mb 22f
3:30pm 7 8 mph 1022.7mb 20f
3:20pm 8 9 mph 1023mb 20f
3:10pm 8 9 mph 1023mb 20f
3:00pm 7 9 mph 1023mb 20f
2:50pm 8 9 mph 1023mb 19f
2:40pm 7 9 mph 1023mb 20f
2:30pm 8 10 mph 1023mb 19f
2:20pm 7 9 mph 1023mb 18f
2:10pm 8 9 mph 1023mb 19f
2:00pm 7 10 mph 1023.4mb 19f
1:50pm 9 11 mph 1023.4mb 18f
1:40pm 9 10 mph 1023.7mb 18f
1:30pm 7 10 mph 1023.7mb 18f
1:20pm 10 11 mph 1023.7mb 18f
1:10pm 8 11 mph 1023.7mb 18f
1:00pm 8 11 mph 1023.7mb 17f
12:50pm 10 11 mph 1023.7mb 19f
12:40pm 8 10 mph 1024mb 19f
12:30pm 8 10 mph 1024.4mb 19f
12:20pm 7 10 mph 1024.4mb 18f
12:10pm 7 11 mph 1024.4mb 19f
12:00pm 8 11 mph 1024.4mb 19f
11:40am 7 10 mph 1024.4mb 18f
11:30am 8 10 mph 1024.4mb 19f
11:20am 8 10 mph 1024.4mb 18f
11:10am 9 13 mph 1024.7mb 17f
11:00am 10 11 mph 1024.7mb 16f
10:50am 8 11 mph 1024.7mb 17f
10:40am 9 14 mph 1024.7mb 16f
10:30am 9 11 mph 1024.7mb 16f
10:20am 11 13 mph 1024.7mb 16f
10:10am 8 11 mph 1024.7mb 14f
10:00am 9 10 mph 1024.4mb 13f
9:50am 9 11 mph 1024.4mb 13f
9:40am 9 13 mph 1024.4mb 12f
9:30am 9 13 mph 1024mb 11f
9:20am 10 13 mph 1024mb 10f
9:10am 10 13 mph 1024mb 9f
9:00am 9 14 mph 1024mb 10f
8:50am 10 13 mph 1024mb 10f
8:40am 11 15 mph 1024mb 10f
8:30am 11 15 mph 1023.7mb 11f
8:20am 11 17 mph 1023.7mb 11f
8:10am 13 16 mph 1023.4mb 11f
8:00am 14 16 mph 1023.4mb 11f
7:50am 13 15 mph 1023.4mb 11f
7:40am 13 16 mph 1023.4mb 10f
7:30am 14 16 mph 1023mb 10f
7:20am 14 17 mph 1023mb 10f
7:10am 11 17 mph 1023mb 9f
7:00am 16 18 mph 1022.7mb 10f
6:50am 13 18 mph 1022.7mb 10f
6:40am 16 20 mph 1022.7mb 10f
6:30am 18 21 mph 1022.4mb 10f
6:20am 16 22 mph 1022.7mb 10f
6:10am 18 21 mph 1022.4mb 10f
6:00am 16 21 mph 1022.7mb 10f
5:50am 16 21 mph 1022.4mb 11f
5:40am 18 23 mph 1022.4mb 11f
5:30am 17 22 mph 1022.4mb 11f
5:20am 18 23 mph 1022mb 11f
5:10am 21 24 mph 1022mb 11f
5:00am 20 22 mph 1021.7mb 12f
4:50am 21 23 mph 1021.7mb 12f
4:40am 18 23 mph 1021.3mb 12f
4:30am 18 24 mph 1021.3mb 13f
4:20am 20 25 mph 1021mb 14f
4:10am 21 24 mph 1020.7mb 15f
4:00am 16 23 mph 1020.7mb 15f
3:50am 17 22 mph 1020.7mb 16f
3:40am 18 25 mph 1020.7mb 15f
3:30am 20 23 mph 1020.3mb 15f
3:20am 18 24 mph 1020.3mb 15f
3:10am 17 21 mph 1020mb 15f
3:00am 16 21 mph 1020.3mb 15f
2:50am 18 23 mph 1020.3mb 16f
2:40am 20 24 mph 1020mb 16f
2:30am 21 24 mph 1020mb 17f
2:20am 20 24 mph 1020mb 17f
2:10am 21 24 mph 1020mb 17f
2:00am 20 29 mph 1019.6mb 18f
1:52am 18 29 mph 1019.6mb 18f
1:50am 20 26 mph 1019.6mb 18f
1:40am 21 26 mph 1019.3mb 19f
1:30am 16 24 mph 1019.6mb 18f
1:20am 18 25 mph 1019.3mb 19f
1:10am 15 26 mph 1019.6mb 19f
1:00am 18 26 mph 1019.6mb 19f
12:50am 18 25 mph 1019.6mb 19f
12:40am 20 23 mph 1019.3mb 19f
12:30am 17 25 mph 1019.6mb 18f
12:20am 22 29 mph 1019.6mb 19f
12:10am 22 28 mph 1019.3mb 19f
12:00am 22 29 mph 1019.6mb 19f
Thu 03/26 11:59pm 23 29 mph 1019mb 19f
11:40pm 18 23 mph 1019.3mb 19f
11:30pm 20 24 mph 1019.3mb 19f
11:20pm 21 25 mph 1019.3mb 19f